Year,Month,Day,Hour,Minute,Value (Times are PST for temperature in C)
2017,06,24,00,00,16.30
2017,06,24,00,01,16.30
2017,06,24,00,02,16.30
2017,06,24,00,03,16.20
2017,06,24,00,04,16.20
2017,06,24,00,05,16.20
2017,06,24,00,06,16.20
2017,06,24,00,07,16.20
2017,06,24,00,08,16.20
2017,06,24,00,09,16.20
2017,06,24,00,10,16.20
2017,06,24,00,11,16.20
2017,06,24,00,12,16.30
2017,06,24,00,13,16.30
2017,06,24,00,14,16.30
2017,06,24,00,15,16.30
2017,06,24,00,16,16.30
2017,06,24,00,17,16.30
2017,06,24,00,18,16.30
2017,06,24,00,19,16.30
2017,06,24,00,20,16.30
2017,06,24,00,21,16.30
2017,06,24,00,22,16.30
2017,06,24,00,23,16.30
2017,06,24,00,24,16.20
2017,06,24,00,25,16.20
2017,06,24,00,26,16.20
2017,06,24,00,27,16.10
2017,06,24,00,28,16.10
2017,06,24,00,29,16.10
2017,06,24,00,30,16.10
2017,06,24,00,31,16.10
2017,06,24,00,32,16.00
2017,06,24,00,33,16.00
2017,06,24,00,34,15.90
2017,06,24,00,35,15.90
2017,06,24,00,36,15.80
2017,06,24,00,37,15.80
2017,06,24,00,38,15.70
2017,06,24,00,39,15.60
2017,06,24,00,40,15.60
2017,06,24,00,41,15.60
2017,06,24,00,42,15.50
2017,06,24,00,43,15.50
2017,06,24,00,44,15.50
2017,06,24,00,45,15.40
2017,06,24,00,46,15.40
2017,06,24,00,47,15.40
2017,06,24,00,48,15.40
2017,06,24,00,49,15.40
2017,06,24,00,50,15.40
2017,06,24,00,51,15.40
2017,06,24,00,52,15.40
2017,06,24,00,53,15.40
2017,06,24,00,54,15.50
2017,06,24,00,55,15.50
2017,06,24,00,56,15.60
2017,06,24,00,57,15.60
2017,06,24,00,58,15.60
2017,06,24,00,59,15.70
2017,06,24,01,00,15.70
2017,06,24,01,01,15.70
2017,06,24,01,02,15.80
2017,06,24,01,03,15.80
2017,06,24,01,04,15.80
2017,06,24,01,05,15.80
2017,06,24,01,06,15.80
2017,06,24,01,07,15.80
2017,06,24,01,08,15.80
2017,06,24,01,09,15.80
2017,06,24,01,10,15.80
2017,06,24,01,11,15.80
2017,06,24,01,12,15.80
2017,06,24,01,13,15.80
2017,06,24,01,14,15.80
2017,06,24,01,15,15.80
2017,06,24,01,16,15.80
2017,06,24,01,17,15.80
2017,06,24,01,18,15.80
2017,06,24,01,19,15.70
2017,06,24,01,20,15.70
2017,06,24,01,21,15.60
2017,06,24,01,22,15.60
2017,06,24,01,23,15.60
2017,06,24,01,24,15.50
2017,06,24,01,25,15.50
2017,06,24,01,26,15.40
2017,06,24,01,27,15.40
2017,06,24,01,28,15.40
2017,06,24,01,29,15.40
2017,06,24,01,30,15.30
2017,06,24,01,31,15.30
2017,06,24,01,32,15.30
2017,06,24,01,33,15.30
2017,06,24,01,34,15.30
2017,06,24,01,35,15.30
2017,06,24,01,36,15.30
2017,06,24,01,37,15.30
2017,06,24,01,38,15.30
2017,06,24,01,39,15.30
2017,06,24,01,40,15.30
2017,06,24,01,41,15.30
2017,06,24,01,42,15.30
2017,06,24,01,43,15.30
2017,06,24,01,44,15.20
2017,06,24,01,45,15.20
2017,06,24,01,46,15.20
2017,06,24,01,47,15.10
2017,06,24,01,48,15.10
2017,06,24,01,49,15.00
2017,06,24,01,50,15.00
2017,06,24,01,51,14.90
2017,06,24,01,52,14.90
2017,06,24,01,53,14.90
2017,06,24,01,54,14.80
2017,06,24,01,55,14.80
2017,06,24,01,56,14.80
2017,06,24,01,57,14.80
2017,06,24,01,58,14.80
2017,06,24,01,59,14.70
2017,06,24,02,00,14.70
2017,06,24,02,01,14.70
2017,06,24,02,02,14.70
2017,06,24,02,03,14.70
2017,06,24,02,04,14.60
2017,06,24,02,05,14.60
2017,06,24,02,06,14.60
2017,06,24,02,07,14.60
2017,06,24,02,08,14.60
2017,06,24,02,09,14.60
2017,06,24,02,10,14.70
2017,06,24,02,11,14.70
2017,06,24,02,12,14.70
2017,06,24,02,13,14.70
2017,06,24,02,14,14.70
2017,06,24,02,15,14.70
2017,06,24,02,16,14.70
2017,06,24,02,17,14.70
2017,06,24,02,18,14.70
2017,06,24,02,19,14.60
2017,06,24,02,20,14.60
2017,06,24,02,21,14.50
2017,06,24,02,22,14.50
2017,06,24,02,23,14.40
2017,06,24,02,24,14.40
2017,06,24,02,25,14.40
2017,06,24,02,26,14.30
2017,06,24,02,27,14.30
2017,06,24,02,28,14.30
2017,06,24,02,29,14.20
2017,06,24,02,30,14.20
2017,06,24,02,31,14.20
2017,06,24,02,32,14.10
2017,06,24,02,33,14.10
2017,06,24,02,34,14.10
2017,06,24,02,35,14.00
2017,06,24,02,36,14.00
2017,06,24,02,37,14.00
2017,06,24,02,38,14.00
2017,06,24,02,39,13.90
2017,06,24,02,40,13.90
2017,06,24,02,41,13.90
2017,06,24,02,42,13.90
2017,06,24,02,43,13.90
2017,06,24,02,44,14.00
2017,06,24,02,45,14.00
2017,06,24,02,46,14.00
2017,06,24,02,47,14.10
2017,06,24,02,48,14.10
2017,06,24,02,49,14.10
2017,06,24,02,50,14.10
2017,06,24,02,51,14.10
2017,06,24,02,52,14.10
2017,06,24,02,53,14.10
2017,06,24,02,54,14.10
2017,06,24,02,55,14.10
2017,06,24,02,56,14.10
2017,06,24,02,57,14.10
2017,06,24,02,58,14.10
2017,06,24,02,59,14.10
2017,06,24,03,00,14.10
2017,06,24,03,01,14.10
2017,06,24,03,02,14.20
2017,06,24,03,03,14.20
2017,06,24,03,04,14.20
2017,06,24,03,05,14.20
2017,06,24,03,06,14.20
2017,06,24,03,07,14.30
2017,06,24,03,08,14.30
2017,06,24,03,09,14.30
2017,06,24,03,10,14.30
2017,06,24,03,11,14.30
2017,06,24,03,12,14.30
2017,06,24,03,13,14.30
2017,06,24,03,14,14.30
2017,06,24,03,15,14.30
2017,06,24,03,16,14.30
2017,06,24,03,17,14.30
2017,06,24,03,18,14.40
2017,06,24,03,19,14.40
2017,06,24,03,20,14.40
2017,06,24,03,21,14.40
2017,06,24,03,22,14.40
2017,06,24,03,23,14.40
2017,06,24,03,24,14.40
2017,06,24,03,25,14.40
2017,06,24,03,26,14.40
2017,06,24,03,27,14.40
2017,06,24,03,28,14.40
2017,06,24,03,29,14.40
2017,06,24,03,30,14.40
2017,06,24,03,31,14.40
2017,06,24,03,32,14.40
2017,06,24,03,33,14.40
2017,06,24,03,34,14.40
2017,06,24,03,35,14.40
2017,06,24,03,36,14.30
2017,06,24,03,37,14.30
2017,06,24,03,38,14.30
2017,06,24,03,39,14.30
2017,06,24,03,40,14.30
2017,06,24,03,41,14.30
2017,06,24,03,42,14.30
2017,06,24,03,43,14.30
2017,06,24,03,44,14.30
2017,06,24,03,45,14.30
2017,06,24,03,46,14.30
2017,06,24,03,47,14.30
2017,06,24,03,48,14.30
2017,06,24,03,49,14.30
2017,06,24,03,50,14.30
2017,06,24,03,51,14.30
2017,06,24,03,52,14.30
2017,06,24,03,53,14.30
2017,06,24,03,54,14.30
2017,06,24,03,55,14.30
2017,06,24,03,56,14.30
2017,06,24,03,57,14.30
2017,06,24,03,58,14.30
2017,06,24,03,59,14.30
2017,06,24,04,00,14.30
2017,06,24,04,01,14.30
2017,06,24,04,02,14.30
2017,06,24,04,03,14.30
2017,06,24,04,04,14.30
2017,06,24,04,05,14.30
2017,06,24,04,06,14.30
2017,06,24,04,07,14.30
2017,06,24,04,08,14.30
2017,06,24,04,09,14.30
2017,06,24,04,10,14.30
2017,06,24,04,11,14.30
2017,06,24,04,12,14.30
2017,06,24,04,13,14.30
2017,06,24,04,14,14.30
2017,06,24,04,15,14.30
2017,06,24,04,16,14.30
2017,06,24,04,17,14.30
2017,06,24,04,18,14.30
2017,06,24,04,19,14.30
2017,06,24,04,20,14.30
2017,06,24,04,21,14.30
2017,06,24,04,22,14.20
2017,06,24,04,23,14.20
2017,06,24,04,24,14.20
2017,06,24,04,25,14.20
2017,06,24,04,26,14.20
2017,06,24,04,27,14.20
2017,06,24,04,28,14.20
2017,06,24,04,29,14.10
2017,06,24,04,30,14.10
2017,06,24,04,31,14.10
2017,06,24,04,32,14.10
2017,06,24,04,33,14.10
2017,06,24,04,34,14.00
2017,06,24,04,35,14.00
2017,06,24,04,36,14.00
2017,06,24,04,37,13.90
2017,06,24,04,38,13.90
2017,06,24,04,39,13.90
2017,06,24,04,40,13.90
2017,06,24,04,41,13.90
2017,06,24,04,42,13.90
2017,06,24,04,43,13.90
2017,06,24,04,44,13.90
2017,06,24,04,45,13.80
2017,06,24,04,46,13.80
2017,06,24,04,47,13.80
2017,06,24,04,48,13.80
2017,06,24,04,49,13.80
2017,06,24,04,50,13.80
2017,06,24,04,51,13.80
2017,06,24,04,52,13.80
2017,06,24,04,53,13.80
2017,06,24,04,54,13.80
2017,06,24,04,55,13.80
2017,06,24,04,56,13.80
2017,06,24,04,57,13.70
2017,06,24,04,58,13.70
2017,06,24,04,59,13.70
2017,06,24,05,00,13.70
2017,06,24,05,01,13.60
2017,06,24,05,02,13.60
2017,06,24,05,03,13.60
2017,06,24,05,04,13.60
2017,06,24,05,05,13.50
2017,06,24,05,06,13.50
2017,06,24,05,07,13.40
2017,06,24,05,08,13.40
2017,06,24,05,09,13.40
2017,06,24,05,10,13.40
2017,06,24,05,11,13.40
2017,06,24,05,12,13.30
2017,06,24,05,13,13.30
2017,06,24,05,14,13.30
2017,06,24,05,15,13.30
2017,06,24,05,16,13.30
2017,06,24,05,17,13.30
2017,06,24,05,18,13.30
2017,06,24,05,19,13.30
2017,06,24,05,20,13.30
2017,06,24,05,21,13.30
2017,06,24,05,22,13.30
2017,06,24,05,23,13.30
2017,06,24,05,24,13.30
2017,06,24,05,25,13.30
2017,06,24,05,26,13.30
2017,06,24,05,27,13.30
2017,06,24,05,28,13.30
2017,06,24,05,29,13.30
2017,06,24,05,30,13.30
2017,06,24,05,31,13.30
2017,06,24,05,32,13.30
2017,06,24,05,33,13.30
2017,06,24,05,34,13.30
2017,06,24,05,35,13.30
2017,06,24,05,36,13.30
2017,06,24,05,37,13.30
2017,06,24,05,38,13.30
2017,06,24,05,39,13.30
2017,06,24,05,40,13.30
2017,06,24,05,41,13.30
2017,06,24,05,42,13.30
2017,06,24,05,43,13.30
2017,06,24,05,44,13.30
2017,06,24,05,45,13.30
2017,06,24,05,46,13.40
2017,06,24,05,47,13.40
2017,06,24,05,48,13.40
2017,06,24,05,49,13.40
2017,06,24,05,50,13.50
2017,06,24,05,51,13.50
2017,06,24,05,52,13.60
2017,06,24,05,53,13.60
2017,06,24,05,54,13.70
2017,06,24,05,55,13.70
2017,06,24,05,56,13.70
2017,06,24,05,57,13.80
2017,06,24,05,58,13.80
2017,06,24,05,59,13.80
2017,06,24,06,00,13.80
2017,06,24,06,01,13.80
2017,06,24,06,02,13.90
2017,06,24,06,03,13.90
2017,06,24,06,04,13.90
2017,06,24,06,05,14.00
2017,06,24,06,06,14.00
2017,06,24,06,07,14.00
2017,06,24,06,08,14.10
2017,06,24,06,09,14.10
2017,06,24,06,10,14.10
2017,06,24,06,11,14.10
2017,06,24,06,12,14.20
2017,06,24,06,13,14.20
2017,06,24,06,14,14.20
2017,06,24,06,15,14.30
2017,06,24,06,16,14.30
2017,06,24,06,17,14.40
2017,06,24,06,18,14.40
2017,06,24,06,19,14.50
2017,06,24,06,20,14.60
2017,06,24,06,21,14.70
2017,06,24,06,22,14.70
2017,06,24,06,23,14.80
2017,06,24,06,24,14.80
2017,06,24,06,25,14.80
2017,06,24,06,26,14.80
2017,06,24,06,27,14.90
2017,06,24,06,28,14.90
2017,06,24,06,29,14.90
2017,06,24,06,30,14.90
2017,06,24,06,31,14.90
2017,06,24,06,32,15.00
2017,06,24,06,33,15.00
2017,06,24,06,34,15.00
2017,06,24,06,35,15.10
2017,06,24,06,36,15.10
2017,06,24,06,37,15.20
2017,06,24,06,38,15.20
2017,06,24,06,39,15.30
2017,06,24,06,40,15.30
2017,06,24,06,41,15.40
2017,06,24,06,42,15.50
2017,06,24,06,43,15.50
2017,06,24,06,44,15.50
2017,06,24,06,45,15.40
2017,06,24,06,46,15.30
2017,06,24,06,47,15.20
2017,06,24,06,48,15.20
2017,06,24,06,49,15.20
2017,06,24,06,50,15.10
2017,06,24,06,51,15.10
2017,06,24,06,52,15.20
2017,06,24,06,53,15.20
2017,06,24,06,54,15.20
2017,06,24,06,55,15.30
2017,06,24,06,56,15.30
2017,06,24,06,57,15.40
2017,06,24,06,58,15.50
2017,06,24,06,59,15.50
2017,06,24,07,00,15.60
2017,06,24,07,01,15.70
2017,06,24,07,02,15.80
2017,06,24,07,03,15.90
2017,06,24,07,04,16.00
2017,06,24,07,05,16.00
2017,06,24,07,06,16.10
2017,06,24,07,07,16.10
2017,06,24,07,08,16.20
2017,06,24,07,09,16.20
2017,06,24,07,10,16.20
2017,06,24,07,11,16.30
2017,06,24,07,12,16.30
2017,06,24,07,13,16.30
2017,06,24,07,14,16.40
2017,06,24,07,15,16.40
2017,06,24,07,16,16.50
2017,06,24,07,17,16.50
2017,06,24,07,18,16.60
2017,06,24,07,19,16.60
2017,06,24,07,20,16.70
2017,06,24,07,21,16.80
2017,06,24,07,22,16.90
2017,06,24,07,23,17.00
2017,06,24,07,24,17.10
2017,06,24,07,25,17.20
2017,06,24,07,26,17.30
2017,06,24,07,27,17.50
2017,06,24,07,28,17.60
2017,06,24,07,29,17.70
2017,06,24,07,30,17.80
2017,06,24,07,31,17.80
2017,06,24,07,32,17.90
2017,06,24,07,33,18.00
2017,06,24,07,34,18.00
2017,06,24,07,35,18.00
2017,06,24,07,36,18.00
2017,06,24,07,37,18.00
2017,06,24,07,38,18.10
2017,06,24,07,39,18.10
2017,06,24,07,40,18.10
2017,06,24,07,41,18.20
2017,06,24,07,42,18.20
2017,06,24,07,43,18.30
2017,06,24,07,44,18.30
2017,06,24,07,45,18.40
2017,06,24,07,46,18.50
2017,06,24,07,47,18.50
2017,06,24,07,48,18.60
2017,06,24,07,49,18.60
2017,06,24,07,50,18.70
2017,06,24,07,51,18.70
2017,06,24,07,52,18.70
2017,06,24,07,53,18.80
2017,06,24,07,54,18.80
2017,06,24,07,55,18.80
2017,06,24,07,56,18.80
2017,06,24,07,57,18.90
2017,06,24,07,58,18.90
2017,06,24,07,59,18.90
2017,06,24,08,00,18.90
2017,06,24,08,01,19.00
2017,06,24,08,02,19.00
2017,06,24,08,03,19.00
2017,06,24,08,04,19.10
2017,06,24,08,05,19.10
2017,06,24,08,06,19.20
2017,06,24,08,07,19.20
2017,06,24,08,08,19.30
2017,06,24,08,09,19.30
2017,06,24,08,10,19.40
2017,06,24,08,11,19.50
2017,06,24,08,12,19.60
2017,06,24,08,13,19.60
2017,06,24,08,14,19.70
2017,06,24,08,15,19.80
2017,06,24,08,16,19.80
2017,06,24,08,17,19.90
2017,06,24,08,18,20.00
2017,06,24,08,19,20.00
2017,06,24,08,20,20.10
2017,06,24,08,21,20.20
2017,06,24,08,22,20.30
2017,06,24,08,23,20.30
2017,06,24,08,24,20.40
2017,06,24,08,25,20.50
2017,06,24,08,26,20.50
2017,06,24,08,27,20.60
2017,06,24,08,28,20.60
2017,06,24,08,29,20.70
2017,06,24,08,30,20.70
2017,06,24,08,31,20.70
2017,06,24,08,32,20.80
2017,06,24,08,33,20.80
2017,06,24,08,34,20.90
2017,06,24,08,35,20.90
2017,06,24,08,36,21.00
2017,06,24,08,37,21.10
2017,06,24,08,38,21.10
2017,06,24,08,39,21.20
2017,06,24,08,40,21.20
2017,06,24,08,41,21.30
2017,06,24,08,42,21.30
2017,06,24,08,43,21.30
2017,06,24,08,44,21.30
2017,06,24,08,45,21.30
2017,06,24,08,46,21.30
2017,06,24,08,47,21.40
2017,06,24,08,48,21.40
2017,06,24,08,49,21.40
2017,06,24,08,50,21.50
2017,06,24,08,51,21.60
2017,06,24,08,52,21.70
2017,06,24,08,53,21.80
2017,06,24,08,54,21.90
2017,06,24,08,55,22.10
2017,06,24,08,56,22.20
2017,06,24,08,57,22.30
2017,06,24,08,58,22.50
2017,06,24,08,59,22.50
2017,06,24,09,00,22.60
2017,06,24,09,01,22.50
2017,06,24,09,02,22.40
2017,06,24,09,03,22.30
2017,06,24,09,04,22.10
2017,06,24,09,05,21.90
2017,06,24,09,06,21.80
2017,06,24,09,07,21.70
2017,06,24,09,08,21.60
2017,06,24,09,09,21.60
2017,06,24,09,10,21.50
2017,06,24,09,11,21.40
2017,06,24,09,12,21.40
2017,06,24,09,13,21.30
2017,06,24,09,14,21.30
2017,06,24,09,15,21.40
2017,06,24,09,16,21.50
2017,06,24,09,17,21.60
2017,06,24,09,18,21.70
2017,06,24,09,19,21.80
2017,06,24,09,20,21.80
2017,06,24,09,21,21.90
2017,06,24,09,22,21.90
2017,06,24,09,23,22.00
2017,06,24,09,24,22.10
2017,06,24,09,25,22.10
2017,06,24,09,26,22.10
2017,06,24,09,27,22.10
2017,06,24,09,28,22.20
2017,06,24,09,29,22.40
2017,06,24,09,30,22.40
2017,06,24,09,31,22.40
2017,06,24,09,32,22.50
2017,06,24,09,33,22.50
2017,06,24,09,34,22.60
2017,06,24,09,35,22.60
2017,06,24,09,36,22.70
2017,06,24,09,37,22.80
2017,06,24,09,38,22.90
2017,06,24,09,39,22.90
2017,06,24,09,40,22.90
2017,06,24,09,41,22.90
2017,06,24,09,42,22.90
2017,06,24,09,43,22.70
2017,06,24,09,44,22.60
2017,06,24,09,45,22.40
2017,06,24,09,46,22.20
2017,06,24,09,47,22.10
2017,06,24,09,48,22.00
2017,06,24,09,49,21.90
2017,06,24,09,50,22.00
2017,06,24,09,51,22.10
2017,06,24,09,52,22.20
2017,06,24,09,53,22.30
2017,06,24,09,54,22.20
2017,06,24,09,55,22.10
2017,06,24,09,56,22.10
2017,06,24,09,57,22.10
2017,06,24,09,58,22.20
2017,06,24,09,59,22.30
2017,06,24,10,00,22.30
2017,06,24,10,01,22.40
2017,06,24,10,02,22.50
2017,06,24,10,03,22.40
2017,06,24,10,04,22.40
2017,06,24,10,05,22.40
2017,06,24,10,06,22.40
2017,06,24,10,07,22.40
2017,06,24,10,08,22.30
2017,06,24,10,09,22.20
2017,06,24,10,10,22.20
2017,06,24,10,11,22.20
2017,06,24,10,12,22.20
2017,06,24,10,13,22.10
2017,06,24,10,14,21.90
2017,06,24,10,15,21.70
2017,06,24,10,16,21.60
2017,06,24,10,17,21.60
2017,06,24,10,18,21.60
2017,06,24,10,19,21.60
2017,06,24,10,20,21.80
2017,06,24,10,21,21.90
2017,06,24,10,22,22.10
2017,06,24,10,23,22.10
2017,06,24,10,24,22.20
2017,06,24,10,25,22.10
2017,06,24,10,26,22.10
2017,06,24,10,27,22.00
2017,06,24,10,28,22.00
2017,06,24,10,29,21.90
2017,06,24,10,30,21.90
2017,06,24,10,31,22.00
2017,06,24,10,32,22.00
2017,06,24,10,33,22.00
2017,06,24,10,34,22.00
2017,06,24,10,35,21.90
2017,06,24,10,36,21.90
2017,06,24,10,37,21.80
2017,06,24,10,38,21.80
2017,06,24,10,39,21.70
2017,06,24,10,40,21.80
2017,06,24,10,41,21.80
2017,06,24,10,42,21.90
2017,06,24,10,43,21.90
2017,06,24,10,44,21.90
2017,06,24,10,45,21.90
2017,06,24,10,46,22.00
2017,06,24,10,47,22.00
2017,06,24,10,48,22.00
2017,06,24,10,49,22.10
2017,06,24,10,50,22.10
2017,06,24,10,51,22.20
2017,06,24,10,52,22.20
2017,06,24,10,53,22.10
2017,06,24,10,54,22.10
2017,06,24,10,55,22.20
2017,06,24,10,56,22.20
2017,06,24,10,57,22.30
2017,06,24,10,58,22.30
2017,06,24,10,59,22.30
2017,06,24,11,00,22.30
2017,06,24,11,01,22.40
2017,06,24,11,02,22.40
2017,06,24,11,03,22.50
2017,06,24,11,04,22.60
2017,06,24,11,05,22.70
2017,06,24,11,06,22.70
2017,06,24,11,07,22.70
2017,06,24,11,08,22.70
2017,06,24,11,09,22.70
2017,06,24,11,10,22.70
2017,06,24,11,11,22.70
2017,06,24,11,12,22.80
2017,06,24,11,13,22.80
2017,06,24,11,14,22.80
2017,06,24,11,15,22.70
2017,06,24,11,16,22.80
2017,06,24,11,17,22.90
2017,06,24,11,18,22.90
2017,06,24,11,19,23.10
2017,06,24,11,20,23.10
2017,06,24,11,21,23.00
2017,06,24,11,22,23.00
2017,06,24,11,23,22.90
2017,06,24,11,24,22.90
2017,06,24,11,25,23.00
2017,06,24,11,26,23.00
2017,06,24,11,27,23.10
2017,06,24,11,28,23.10
2017,06,24,11,29,23.10
2017,06,24,11,30,23.10
2017,06,24,11,31,23.20
2017,06,24,11,32,23.20
2017,06,24,11,33,23.30
2017,06,24,11,34,23.30
2017,06,24,11,35,23.30
2017,06,24,11,36,23.40
2017,06,24,11,37,23.40
2017,06,24,11,38,23.50
2017,06,24,11,39,23.50
2017,06,24,11,40,23.50
2017,06,24,11,41,23.50
2017,06,24,11,42,23.60
2017,06,24,11,43,23.60
2017,06,24,11,44,23.70
2017,06,24,11,45,23.80
2017,06,24,11,46,24.00
2017,06,24,11,47,24.10
2017,06,24,11,48,24.10
2017,06,24,11,49,24.10
2017,06,24,11,50,24.10
2017,06,24,11,51,24.10
2017,06,24,11,52,24.10
2017,06,24,11,53,24.00
2017,06,24,11,54,23.90
2017,06,24,11,55,23.90
2017,06,24,11,56,24.00
2017,06,24,11,57,24.10
2017,06,24,11,58,24.00
2017,06,24,11,59,24.10
2017,06,24,12,00,24.10
2017,06,24,12,01,24.00
2017,06,24,12,02,23.90
2017,06,24,12,03,23.90
2017,06,24,12,04,23.90
2017,06,24,12,05,23.90
2017,06,24,12,06,24.00
2017,06,24,12,07,24.10
2017,06,24,12,08,24.20
2017,06,24,12,09,24.20
2017,06,24,12,10,24.20
2017,06,24,12,11,24.30
2017,06,24,12,12,24.30
2017,06,24,12,13,24.30
2017,06,24,12,14,24.30
2017,06,24,12,15,24.20
2017,06,24,12,16,24.10
2017,06,24,12,17,23.90
2017,06,24,12,18,23.90
2017,06,24,12,19,23.80
2017,06,24,12,20,23.70
2017,06,24,12,21,23.50
2017,06,24,12,22,23.50
2017,06,24,12,23,23.40
2017,06,24,12,24,23.30
2017,06,24,12,25,23.30
2017,06,24,12,26,23.30
2017,06,24,12,27,23.30
2017,06,24,12,28,23.40
2017,06,24,12,29,23.50
2017,06,24,12,30,23.60
2017,06,24,12,31,23.70
2017,06,24,12,32,23.70
2017,06,24,12,33,23.80
2017,06,24,12,34,23.90
2017,06,24,12,35,24.00
2017,06,24,12,36,24.00
2017,06,24,12,37,24.10
2017,06,24,12,38,24.20
2017,06,24,12,39,24.30
2017,06,24,12,40,24.40
2017,06,24,12,41,24.30
2017,06,24,12,42,24.20
2017,06,24,12,43,24.10
2017,06,24,12,44,24.10
2017,06,24,12,45,24.00
2017,06,24,12,46,23.90
2017,06,24,12,47,24.00
2017,06,24,12,48,24.10
2017,06,24,12,49,24.00
2017,06,24,12,50,24.00
2017,06,24,12,51,24.00
2017,06,24,12,52,24.00
2017,06,24,12,53,24.10
2017,06,24,12,54,24.20
2017,06,24,12,55,24.20
2017,06,24,12,56,24.10
2017,06,24,12,57,24.10
2017,06,24,12,58,24.10
2017,06,24,12,59,24.10
2017,06,24,13,00,24.20
2017,06,24,13,01,24.20
2017,06,24,13,02,24.20
2017,06,24,13,03,24.10
2017,06,24,13,04,24.10
2017,06,24,13,05,24.10
2017,06,24,13,06,24.20
2017,06,24,13,07,24.30
2017,06,24,13,08,24.40
2017,06,24,13,09,24.60
2017,06,24,13,10,24.70
2017,06,24,13,11,24.90
2017,06,24,13,12,25.00
2017,06,24,13,13,25.00
2017,06,24,13,14,25.00
2017,06,24,13,15,25.00
2017,06,24,13,16,24.80
2017,06,24,13,17,24.40
2017,06,24,13,18,24.10
2017,06,24,13,19,24.00
2017,06,24,13,20,23.90
2017,06,24,13,21,23.80
2017,06,24,13,22,23.80
2017,06,24,13,23,23.80
2017,06,24,13,24,23.80
2017,06,24,13,25,23.70
2017,06,24,13,26,23.60
2017,06,24,13,27,23.30
2017,06,24,13,28,23.20
2017,06,24,13,29,23.10
2017,06,24,13,30,23.10
2017,06,24,13,31,23.20
2017,06,24,13,32,23.30
2017,06,24,13,33,23.50
2017,06,24,13,34,23.60
2017,06,24,13,35,23.70
2017,06,24,13,36,23.80
2017,06,24,13,37,23.70
2017,06,24,13,38,23.70
2017,06,24,13,39,23.70
2017,06,24,13,40,23.80
2017,06,24,13,41,23.80
2017,06,24,13,42,23.90
2017,06,24,13,43,23.90
2017,06,24,13,44,24.00
2017,06,24,13,45,24.10
2017,06,24,13,46,24.10
2017,06,24,13,47,24.10
2017,06,24,13,48,24.10
2017,06,24,13,49,24.20
2017,06,24,13,50,24.30
2017,06,24,13,51,24.30
2017,06,24,13,52,24.30
2017,06,24,13,53,24.10
2017,06,24,13,54,24.00
2017,06,24,13,55,23.90
2017,06,24,13,56,23.90
2017,06,24,13,57,23.80
2017,06,24,13,58,23.60
2017,06,24,13,59,23.40
2017,06,24,14,00,23.40
2017,06,24,14,01,23.30
2017,06,24,14,02,23.20
2017,06,24,14,03,23.10
2017,06,24,14,04,23.10
2017,06,24,14,05,23.20
2017,06,24,14,06,23.30
2017,06,24,14,07,23.40
2017,06,24,14,08,23.60
2017,06,24,14,09,23.60
2017,06,24,14,10,23.60
2017,06,24,14,11,23.50
2017,06,24,14,12,23.50
2017,06,24,14,13,23.50
2017,06,24,14,14,23.50
2017,06,24,14,15,23.40
2017,06,24,14,16,23.40
2017,06,24,14,17,23.30
2017,06,24,14,18,23.30
2017,06,24,14,19,23.30
2017,06,24,14,20,23.40
2017,06,24,14,21,23.30
2017,06,24,14,22,23.30
2017,06,24,14,23,23.30
2017,06,24,14,24,23.40
2017,06,24,14,25,23.40
2017,06,24,14,26,23.40
2017,06,24,14,27,23.20
2017,06,24,14,28,23.20
2017,06,24,14,29,23.10
2017,06,24,14,30,23.10
2017,06,24,14,31,23.10
2017,06,24,14,32,23.20
2017,06,24,14,33,23.20
2017,06,24,14,34,23.10
2017,06,24,14,35,23.10
2017,06,24,14,36,23.10
2017,06,24,14,37,23.20
2017,06,24,14,38,23.30
2017,06,24,14,39,23.30
2017,06,24,14,40,23.40
2017,06,24,14,41,23.50
2017,06,24,14,42,23.60
2017,06,24,14,43,23.60
2017,06,24,14,44,23.70
2017,06,24,14,45,23.90
2017,06,24,14,46,24.00
2017,06,24,14,47,24.10
2017,06,24,14,48,24.30
2017,06,24,14,49,24.50
2017,06,24,14,50,24.60
2017,06,24,14,51,24.70
2017,06,24,14,52,24.70
2017,06,24,14,53,24.60
2017,06,24,14,54,24.60
2017,06,24,14,55,24.60
2017,06,24,14,56,24.60
2017,06,24,14,57,24.70
2017,06,24,14,58,24.60
2017,06,24,14,59,24.50
2017,06,24,15,00,24.50
2017,06,24,15,01,24.40
2017,06,24,15,02,24.40
2017,06,24,15,03,24.40
2017,06,24,15,04,24.50
2017,06,24,15,05,24.40
2017,06,24,15,06,24.40
2017,06,24,15,07,24.40
2017,06,24,15,08,24.40
2017,06,24,15,09,24.50
2017,06,24,15,10,24.50
2017,06,24,15,11,24.50
2017,06,24,15,12,24.50
2017,06,24,15,13,24.50
2017,06,24,15,14,24.50
2017,06,24,15,15,24.60
2017,06,24,15,16,24.60
2017,06,24,15,17,24.60
2017,06,24,15,18,24.60
2017,06,24,15,19,24.70
2017,06,24,15,20,24.60
2017,06,24,15,21,24.60
2017,06,24,15,22,24.70
2017,06,24,15,23,24.80
2017,06,24,15,24,24.80
2017,06,24,15,25,24.80
2017,06,24,15,26,24.70
2017,06,24,15,27,24.60
2017,06,24,15,28,24.60
2017,06,24,15,29,24.70
2017,06,24,15,30,24.70
2017,06,24,15,31,24.70
2017,06,24,15,32,24.60
2017,06,24,15,33,24.70
2017,06,24,15,34,24.60
2017,06,24,15,35,24.50
2017,06,24,15,36,24.40
2017,06,24,15,37,24.30
2017,06,24,15,38,24.20
2017,06,24,15,39,24.20
2017,06,24,15,40,24.10
2017,06,24,15,41,24.00
2017,06,24,15,42,23.90
2017,06,24,15,43,23.90
2017,06,24,15,44,23.90
2017,06,24,15,45,24.00
2017,06,24,15,46,24.10
2017,06,24,15,47,24.20
2017,06,24,15,48,24.30
2017,06,24,15,49,24.30
2017,06,24,15,50,24.40
2017,06,24,15,51,24.50
2017,06,24,15,52,24.60
2017,06,24,15,53,24.70
2017,06,24,15,54,24.70
2017,06,24,15,55,24.80
2017,06,24,15,56,24.80
2017,06,24,15,57,24.80
2017,06,24,15,58,24.80
2017,06,24,15,59,24.80
2017,06,24,16,00,24.90
2017,06,24,16,01,24.90
2017,06,24,16,02,24.90
2017,06,24,16,03,24.90
2017,06,24,16,04,24.90
2017,06,24,16,05,24.90
2017,06,24,16,06,25.00
2017,06,24,16,07,25.10
2017,06,24,16,08,25.20
2017,06,24,16,09,25.20
2017,06,24,16,10,25.20
2017,06,24,16,11,25.20
2017,06,24,16,12,25.20
2017,06,24,16,13,25.20
2017,06,24,16,14,25.10
2017,06,24,16,15,25.10
2017,06,24,16,16,25.10
2017,06,24,16,17,25.10
2017,06,24,16,18,25.00
2017,06,24,16,19,24.90
2017,06,24,16,20,24.90
2017,06,24,16,21,24.80
2017,06,24,16,22,24.80
2017,06,24,16,23,24.80
2017,06,24,16,24,24.80
2017,06,24,16,25,24.80
2017,06,24,16,26,24.80
2017,06,24,16,27,24.80
2017,06,24,16,28,24.80
2017,06,24,16,29,24.80
2017,06,24,16,30,24.80
2017,06,24,16,31,24.90
2017,06,24,16,32,24.90
2017,06,24,16,33,25.00
2017,06,24,16,34,25.10
2017,06,24,16,35,25.10
2017,06,24,16,36,25.20
2017,06,24,16,37,25.20
2017,06,24,16,38,25.30
2017,06,24,16,39,25.30
2017,06,24,16,40,25.30
2017,06,24,16,41,25.30
2017,06,24,16,42,25.30
2017,06,24,16,43,25.10
2017,06,24,16,44,24.90
2017,06,24,16,45,24.80
2017,06,24,16,46,24.70
2017,06,24,16,47,24.70
2017,06,24,16,48,24.70
2017,06,24,16,49,24.70
2017,06,24,16,50,24.70
2017,06,24,16,51,24.70
2017,06,24,16,52,24.70
2017,06,24,16,53,24.70
2017,06,24,16,54,24.70
2017,06,24,16,55,24.70
2017,06,24,16,56,24.70
2017,06,24,16,57,24.80
2017,06,24,16,58,24.80
2017,06,24,16,59,24.70
2017,06,24,17,00,24.70
2017,06,24,17,01,24.70
2017,06,24,17,02,24.70
2017,06,24,17,03,24.60
2017,06,24,17,04,24.60
2017,06,24,17,05,24.60
2017,06,24,17,06,24.50
2017,06,24,17,07,24.50
2017,06,24,17,08,24.60
2017,06,24,17,09,24.70
2017,06,24,17,10,24.80
2017,06,24,17,11,24.90
2017,06,24,17,12,24.90
2017,06,24,17,13,24.90
2017,06,24,17,14,24.90
2017,06,24,17,15,25.00
2017,06,24,17,16,25.10
2017,06,24,17,17,25.10
2017,06,24,17,18,25.10
2017,06,24,17,19,25.10